SL-3 DEB, 19643

Orbit data source: Space-Track

SL-3 DEB, 19643 is space debris in LEO originally from a launch on Sat, 23 Dec 1978 UTC launched from the Plesetsk Missile And Space Complex (PKMTR). Debris objects in space refer to the collection of defunct objects orbiting the Earth. Examples of debris include non-operational satellites, rocket bodies, and fragments generated from explosions, collisions, or faulty payload assembly.

Loading next visibility...
Identifier
19643, 1978-121C
Orbit
LEO
Country
Flag of CISCIS
Related business
Manufacturer
Unknown
Mission
Spacecraft
Bus & Motor
Unknown
Mass
Unknown
Launch date (UTC)
1978-12-23 (47 years ago)
Launch vehicle
Unknown
Launch site
Plesetsk Missile And Space Complex (PKMTR)
Object type
Payload
Rocket body
Debris
Shape & HBR
Unknown shape, 0.1 m
Radar Cross Section
Medium (>0.1 m² and <1 m²)

Expand to show TLE details & history
Last TLE update: 2 days ago

TLE from 2 days ago
0 SL-3 DEB
1 19643U 78121C   26171.42497940  .00000118  00000-0  52090-4 0  9998
2 19643  81.2383 174.4702 0064345 184.8682 301.6413 14.15979483943986
Epoch: 2026-06-20T10:11Z
TLE epoch observation values (Epoch: 2026-06-20T10:11:58.220Z)
Latitude
53.30762°
Longitude
-79.03466°
Altitude
823.517 km
Speed
7.459 km/s
True Right ascension
22h 50m 23s
True Declination
53° 08' 39"
Sunlit
Object was in daylight at epoch
Visualization orbit readout
Latitude
Unknown
Longitude
Unknown
Altitude
Unknown
Speed
Unknown
Apparent Right ascension
Unknown
Apparent Declination
Unknown
Sunlit
N/A
Visualization observer readout
Local Sidereal Time
23:08:01
Azimuth
Unknown
Elevation
Unknown
Doppler factor
Unknown
Orbital elements
Apogee altitude
882.569 km
Perigee altitude
789.728 km
Semi-major axis
7,214.285 km
Eccentricity
0.00643
Inclination
81.2383°
RAAN
174.4702°
Arg. of periapsis
184.8682°
True anomaly
301.01092°
Mean anomaly
301.6413°
Eccentric anomaly
301.32638°
Mean motion
3.54204 °/min
Orbital period
101.64 mins
BSTAR
0.00005209
Loading maneuver chart data...
Computing Atmospheric mass density...
Loading historical data...
Loading historical data...
Loading historical data...
Loading historical data...
Loading historical data...
Loading historical data...
Loading historical data...
Other satellites on launch #121 in the year 1978 (1978-12-23 UTC)

Documentation

Showing up to 5 results
|